When you browse on this site, cookies collect data to enhance your experience and personalize the content and advertising you see.
Visit our Privacy Policy to learn more. By continuing to use the site, you agree to this use of cookies and data.
  • In Romania
  • List of Countries
  • For 7 days
  • Water Temperature
  • Satellite Maps
  • Weather Map
  • Weather Widgets
  • user-avatar
    Login

    Hourly Weather Gori

    Today, 25 May, Saturday

    Time Temperature Precipitation Wind Pressure Humidity
    00:00 +16°C° 0.4 mm 2 mps 699 mmHg 81%
    01:00 +16°C° 0.2 mm 2 mps 699 mmHg 82%
    02:00 +16°C° 0.2 mm 2 mps 699 mmHg 82%
    03:00 +17°C° 0 mm 2 mps 699 mmHg 78%
    04:00 +17°C° 0.1 mm 2 mps 699 mmHg 79%
    05:00 +17°C° 0.1 mm 2 mps 699 mmHg 79%
    06:00 +17°C° 0.1 mm 2 mps 699 mmHg 80%
    07:00 +19°C° 0 mm 3 mps 699 mmHg 77%
    08:00 +20°C° 0 mm 3 mps 698 mmHg 73%
    09:00 +22°C° 0 mm 3 mps 698 mmHg 68%
    10:00 +25°C° 0.3 mm 4 mps 698 mmHg 65%
    11:00 +26°C° 0.3 mm 4 mps 698 mmHg 62%
    12:00 +27°C° 0.3 mm 4 mps 698 mmHg 59%
    13:00 +26°C° 1.9 mm 3 mps 697 mmHg 62%
    14:00 +26°C° 1.9 mm 3 mps 697 mmHg 65%
    15:00 +25°C° 0 mm 2 mps 697 mmHg 69%
    16:00 +22°C° 1.6 mm 3 mps 697 mmHg 73%
    17:00 +21°C° 1.6 mm 3 mps 697 mmHg 77%
    18:00 +19°C° 1.6 mm 3 mps 698 mmHg 81%
    19:00 +18°C° 0.3 mm 3 mps 698 mmHg 85%
    20:00 +17°C° 0.3 mm 2 mps 698 mmHg 88%
    21:00 +16°C° 0.3 mm 2 mps 699 mmHg 92%
    22:00 +15°C° 0.4 mm 2 mps 699 mmHg 92%
    23:00 +15°C° 0.4 mm 2 mps 699 mmHg 92%

    Tomorrow, 26 May, Sunday

    Time Temperature Precipitation Wind Pressure Humidity
    00:00 +14°C° 0.4 mm 1 mps 699 mmHg 92%
    01:00 +14°C° 0.1 mm 1 mps 699 mmHg 92%
    02:00 +13°C° 0.1 mm 1 mps 699 mmHg 91%
    03:00 +13°C° 0.1 mm 1 mps 699 mmHg 90%
    04:00 +14°C° 0 mm 1 mps 699 mmHg 87%
    05:00 +15°C° 0 mm 1 mps 699 mmHg 85%
    06:00 +16°C° 0 mm 1 mps 699 mmHg 82%
    07:00 +18°C° 0.1 mm 1 mps 700 mmHg 75%
    08:00 +19°C° 0.1 mm 2 mps 700 mmHg 68%
    09:00 +21°C° 0.1 mm 2 mps 700 mmHg 62%
    10:00 +22°C° 0.3 mm 3 mps 700 mmHg 58%
    11:00 +24°C° 0.3 mm 3 mps 700 mmHg 54%
    12:00 +25°C° 0.3 mm 4 mps 699 mmHg 51%
    13:00 +23°C° 0.6 mm 5 mps 699 mmHg 54%
    14:00 +22°C° 0.6 mm 5 mps 699 mmHg 58%
    15:00 +22°C° 0.6 mm 6 mps 699 mmHg 62%
    16:00 +20°C° 0.2 mm 5 mps 699 mmHg 67%
    17:00 +19°C° 0.2 mm 5 mps 699 mmHg 73%
    18:00 +18°C° 0.2 mm 4 mps 699 mmHg 78%
    19:00 +15°C° 0 mm 4 mps 700 mmHg 84%
    20:00 +14°C° 0 mm 3 mps 700 mmHg 89%
    21:00 +13°C° 0 mm 3 mps 701 mmHg 95%
    22:00 +13°C° 0 mm 3 mps 701 mmHg 95%
    23:00 +12°C° 0 mm 3 mps 701 mmHg 95%

    Day after tomorrow, 27 May, Monday

    Time Temperature Precipitation Wind Pressure Humidity
    00:00 +12°C° 0 mm 3 mps 701 mmHg 95%
    01:00 +12°C° 0 mm 3 mps 701 mmHg 95%
    02:00 +11°C° 0 mm 3 mps 701 mmHg 95%
    03:00 +11°C° 0 mm 3 mps 701 mmHg 95%
    04:00 +11°C° 0 mm 3 mps 701 mmHg 93%
    05:00 +12°C° 0 mm 3 mps 702 mmHg 90%
    06:00 +12°C° 0 mm 3 mps 702 mmHg 88%
    07:00 +14°C° 0 mm 3 mps 702 mmHg 80%
    08:00 +17°C° 0 mm 4 mps 702 mmHg 72%
    09:00 +19°C° 0 mm 4 mps 702 mmHg 63%
    10:00 +20°C° 0 mm 4 mps 702 mmHg 60%
    11:00 +21°C° 0 mm 5 mps 702 mmHg 56%
    12:00 +22°C° 0 mm 5 mps 702 mmHg 52%
    13:00 +23°C° 0 mm 5 mps 702 mmHg 51%
    14:00 +23°C° 0 mm 5 mps 702 mmHg 50%
    15:00 +23°C° 0 mm 5 mps 702 mmHg 49%
    16:00 +22°C° 0 mm 4 mps 702 mmHg 54%
    17:00 +21°C° 0 mm 4 mps 702 mmHg 60%
    18:00 +20°C° 0 mm 3 mps 702 mmHg 65%
    19:00 +18°C° 0 mm 3 mps 703 mmHg 74%
    20:00 +16°C° 0 mm 3 mps 703 mmHg 83%
    21:00 +14°C° 0 mm 2 mps 703 mmHg 92%
    22:00 +14°C° 0 mm 2 mps 704 mmHg 91%
    23:00 +13°C° 0 mm 2 mps 704 mmHg 91%

    28 May, Tuesday

    Time Temperature Precipitation Wind Pressure Humidity
    00:00 +13°C° 0 mm 1 mps 704 mmHg 91%
    01:00 +13°C° 0 mm 1 mps 704 mmHg 89%
    02:00 +13°C° 0 mm 1 mps 703 mmHg 88%
    03:00 +12°C° 0 mm 1 mps 703 mmHg 87%
    04:00 +13°C° 0 mm 1 mps 704 mmHg 84%
    05:00 +14°C° 0 mm 1 mps 704 mmHg 81%
    06:00 +15°C° 0 mm 1 mps 704 mmHg 78%
    07:00 +18°C° 0 mm 1 mps 704 mmHg 71%
    08:00 +19°C° 0 mm 2 mps 704 mmHg 64%
    09:00 +21°C° 0 mm 2 mps 704 mmHg 57%
    10:00 +23°C° 0 mm 2 mps 704 mmHg 54%
    11:00 +24°C° 0 mm 3 mps 704 mmHg 52%
    12:00 +25°C° 0 mm 3 mps 704 mmHg 49%
    13:00 +25°C° 0.2 mm 3 mps 703 mmHg 49%
    14:00 +26°C° 0.2 mm 3 mps 703 mmHg 49%
    15:00 +26°C° 0.2 mm 3 mps 703 mmHg 50%
    16:00 +25°C° 0.4 mm 3 mps 703 mmHg 55%
    17:00 +24°C° 0.4 mm 2 mps 703 mmHg 59%
    18:00 +23°C° 0.4 mm 2 mps 703 mmHg 64%
    19:00 +20°C° 0.3 mm 2 mps 703 mmHg 69%
    20:00 +18°C° 0.3 mm 2 mps 703 mmHg 74%
    21:00 +16°C° 0.3 mm 2 mps 703 mmHg 79%
    22:00 +15°C° 0.6 mm 2 mps 703 mmHg 81%
    23:00 +15°C° 0.6 mm 2 mps 703 mmHg 83%

    29 May, Wednesday

    Time Temperature Precipitation Wind Pressure Humidity
    00:00 +14°C° 0.6 mm 2 mps 703 mmHg 85%
    01:00 +14°C° 0.3 mm 2 mps 703 mmHg 86%
    02:00 +14°C° 0.3 mm 2 mps 703 mmHg 87%
    03:00 +14°C° 0.3 mm 2 mps 703 mmHg 87%
    04:00 +14°C° 0 mm 2 mps 703 mmHg 86%
    05:00 +15°C° 0 mm 2 mps 703 mmHg 84%
    06:00 +15°C° 0 mm 2 mps 703 mmHg 82%
    07:00 +17°C° 0 mm 2 mps 703 mmHg 77%
    08:00 +19°C° 0 mm 3 mps 703 mmHg 72%
    09:00 +20°C° 0 mm 3 mps 703 mmHg 67%
    10:00 +22°C° 0 mm 4 mps 702 mmHg 63%
    11:00 +23°C° 0 mm 4 mps 702 mmHg 58%
    12:00 +25°C° 0 mm 4 mps 702 mmHg 54%
    13:00 +26°C° 0 mm 4 mps 702 mmHg 52%
    14:00 +26°C° 0 mm 4 mps 702 mmHg 51%
    15:00 +27°C° 0 mm 4 mps 702 mmHg 49%
    16:00 +26°C° 0 mm 3 mps 701 mmHg 53%
    17:00 +25°C° 0 mm 3 mps 701 mmHg 58%
    18:00 +24°C° 0 mm 2 mps 701 mmHg 62%
    19:00 +21°C° 0 mm 2 mps 701 mmHg 67%
    20:00 +19°C° 0 mm 2 mps 702 mmHg 73%
    21:00 +17°C° 0 mm 2 mps 702 mmHg 79%
    22:00 +16°C° 0 mm 2 mps 702 mmHg 80%
    23:00 +16°C° 0 mm 2 mps 702 mmHg 80%

    30 May, Thursday

    Time Temperature Precipitation Wind Pressure Humidity
    00:00 +15°C° 0 mm 2 mps 702 mmHg 81%
    01:00 +15°C° 0 mm 2 mps 702 mmHg 82%
    02:00 +15°C° 0 mm 2 mps 701 mmHg 82%
    03:00 +14°C° 0 mm 2 mps 701 mmHg 83%
    04:00 +15°C° 0 mm 2 mps 701 mmHg 81%
    05:00 +16°C° 0 mm 2 mps 702 mmHg 80%
    06:00 +18°C° 0 mm 1 mps 702 mmHg 78%
    07:00 +19°C° 0 mm 2 mps 702 mmHg 72%
    08:00 +21°C° 0 mm 2 mps 702 mmHg 66%
    09:00 +24°C° 0 mm 3 mps 702 mmHg 60%
    10:00 +25°C° 0 mm 3 mps 701 mmHg 56%
    11:00 +26°C° 0 mm 3 mps 701 mmHg 52%
    12:00 +27°C° 0 mm 3 mps 701 mmHg 48%
    13:00 +28°C° 0 mm 3 mps 701 mmHg 47%
    14:00 +28°C° 0 mm 3 mps 701 mmHg 46%
    15:00 +28°C° 0 mm 3 mps 701 mmHg 44%
    16:00 +28°C° 0 mm 2 mps 701 mmHg 49%
    17:00 +27°C° 0 mm 2 mps 701 mmHg 54%
    18:00 +26°C° 0 mm 1 mps 701 mmHg 59%
    19:00 +24°C° 0 mm 1 mps 701 mmHg 64%
    20:00 +21°C° 0 mm 1 mps 701 mmHg 69%
    21:00 +19°C° 0 mm 1 mps 701 mmHg 73%
    22:00 +18°C° 0 mm 1 mps 702 mmHg 73%
    23:00 +18°C° 0 mm 1 mps 702 mmHg 72%
    Show more